User: anonymous   Login
Location: Ballingbuur
(53.0000°N, 5.7667°E)
Time: 07:00:48
(UTC+00:00)
Language:

PSLV DEB - Orbit

View from above orbital plane
View from above orbital plane
View from above satellite
View from above satellite

Ground track
Ground track

The orbit data is extracted from the following two-line orbital elements,

1 28853U 01049PF  21170.20773354  .00000317  00000-0  44548-4 0  9992
2 28853  98.1149 164.0201 0037054 134.9558 284.0271 14.84029856934094
Epoch (UTC): 19 June 2021 04:59:08
Eccentricity: 0.0037054
inclination: 98.1149°
perigee height: 591 km
apogee height: 642 km
right ascension of ascending node: 164.0201°
argument of perigee: 134.9558°
revolutions per day: 14.84029856
mean anomaly at epoch: 284.0271°
orbit number at epoch: 93409

The dashed part of the orbit path shows where the satellite is in the earth's shadow,  

DLR